This is the latest recevied weather packets stored in our database for station/object EA7OC-10. If no packets are shown the sender has not sent any weather packets the latest 10 day(s).
| Time | Temp. | Humidity | Pressure | Rain* | Wind** | Luminosity | Snow |
|---|---|---|---|---|---|---|---|
| 1788011562 | 41.67° C | 27% | 1018.2 hPa | - | - | - | - |
| 1788010662 | 42.22° C | 27% | 1018.4 hPa | - | - | - | - |
| 1788009762 | 41.67° C | 27% | 1018.6 hPa | - | - | - | - |
| 1788008862 | 40.56° C | 26% | 1018.8 hPa | - | - | - | - |
| 1788007962 | 40° C | 27% | 1018.7 hPa | - | - | - | - |
| 1788007061 | 40° C | 27% | 1019 hPa | - | - | - | - |
| 1788006161 | 39.44° C | 27% | 1019.2 hPa | - | - | - | - |
| 1788005261 | 39.44° C | 27% | 1019.4 hPa | - | - | - | - |
| 1788004361 | 38.89° C | 27% | 1019.5 hPa | - | - | - | - |
| 1788003460 | 38.33° C | 28% | 1019.6 hPa | - | - | - | - |
| 1788002560 | 37.22° C | 28% | 1020.1 hPa | - | - | - | - |
| 1788001660 | 36.67° C | 29% | 1020.2 hPa | - | - | - | - |
| 1788000760 | 35° C | 28% | 1020.2 hPa | - | - | - | - |
| 1787999860 | 33.89° C | 30% | 1020.5 hPa | - | - | - | - |
| 1787998960 | 31.67° C | 28% | 1020.5 hPa | - | - | - | - |
| 1787998060 | 32.78° C | 28% | 1020.6 hPa | - | - | - | - |
| 1787997160 | 31.67° C | 28% | 1020.5 hPa | - | - | - | - |
| 1787996260 | 31.11° C | 28% | 1020.7 hPa | - | - | - | - |
| 1787995359 | 31.67° C | 27% | 1020.6 hPa | - | - | - | - |
| 1787993580 | 34.44° C | 28% | 1020.7 hPa | - | - | - | - |
| 1787992680 | 33.89° C | 28% | 1020.7 hPa | - | - | - | - |
| 1787991780 | 34.44° C | 28% | 1020.6 hPa | - | - | - | - |
| 1787990880 | 33.89° C | 29% | 1020.5 hPa | - | - | - | - |
| 1787989980 | 32.22° C | 30% | 1020.5 hPa | - | - | - | - |
| 1787989080 | 31.11° C | 29% | 1020.3 hPa | - | - | - | - |
* Rain since midnight (hover to see other rain measurements)
** Current wind speed in m/s (hover to see current wind gust speed)